This demonstration page uses our WeatherBlox Daily Observations layout. Learn more.

Left ArrowRight Arrow

30.21309, -93.2044

Hourly Observations for May 23, 2022

Temp ( °F °C ) Dew Point ( °F °C ) Humidity (%) Winds ( mph kmh ) Pressure ( in mb ) Visibility ( mi km ) Precip ( " mm )
12:15 am 00:15 Partly Cloudy 71 21.9 67 19.3 85 85 NNE 8 13 30.07 1018 10 16 0.00 0.00
12:35 am 00:35 Clear 71 21.8 67 19.3 86 86 NNE 8 13 30.07 1018 10 16 0.00 0.00
12:55 am 00:55 Clear 71 21.7 67 19.3 86 86 NNE 9 15 30.06 1018 10 16 0.00 0.00
1:15 am 01:15 Mostly Cloudy 71 21.8 67 19.3 86 86 NE 8 13 30.07 1018 10 16 0.00 0.00
1:35 am 01:35 Cloudy 71 21.8 67 19.3 86 86 NNE 7 11 30.06 1018 10 16 0.00 0.00
1:55 am 01:55 Cloudy 71 21.7 66 19.1 85 85 NE 8 13 30.06 1018 10 16 0.00 0.00
2:15 am 02:15 Cloudy 71 21.9 66 18.9 83 83 NE 8 13 30.05 1018 10 16 0.00 0.00
2:35 am 02:35 Cloudy 71 21.8 66 18.7 83 83 ENE 10 17 30.04 1017 10 16 0.00 0.00
2:55 am 02:55 Cloudy 71 21.7 65 18.6 83 83 NE 12 19 30.03 1017 10 16 0.00 0.00
3:15 am 03:15 Cloudy 71 21.6 65 18.5 83 83 NE 9 15 30.03 1017 10 16 0.00 0.00
3:35 am 03:35 Cloudy 71 21.6 65 18.5 83 83 NE 8 13 30.02 1017 10 16 0.00 0.00
3:55 am 03:55 Cloudy 70 21.3 65 18.4 84 84 NE 9 15 30.02 1017 10 16 0.00 0.00
4:15 am 04:15 Cloudy 70 21.1 65 18.1 83 83 NNE 9 15 30.01 1016 10 16 0.00 0.00
4:35 am 04:35 Cloudy 70 21 65 18.1 84 84 NNE 6 9 30.01 1016 10 16 0.00 0.00
4:55 am 04:55 Cloudy 69 20.8 65 18.1 85 85 NNE 8 13 30.01 1016 10 16 0.00 0.00
5:15 am 05:15 Cloudy 69 20.6 64 18 85 85 NNE 7 11 30.01 1016 10 16 0.00 0.00
5:35 am 05:35 Cloudy 69 20.6 64 18 85 85 NNE 8 13 30.01 1016 10 16 0.00 0.00
6:00 am 06:00 Mostly Cloudy 70 21 64 18 83 83 NE 12 19 30.02 1017 10 16 0.00 0.00
6:55 am 06:55 Cloudy 70 21 64 18 83 83 NNE 8 13 30.04 1017 10 16 0.00 0.00
7:45 am 07:45 Cloudy 70 21 64 18 83 83 NNE 8 13 30.05 1018 7 11 0.00 0.00
8:55 am 08:55 Cloudy 70 21 64 18 83 83 NE 8 13 30.08 1019 7 11 0.00 0.00
9:50 am 09:50 Cloudy 70 21 64 18 83 83 N 8 13 30.09 1019 10 16 0.00 0.00
10:55 am 10:55 Cloudy 72 22 64 18 78 78 NE 8 13 30.07 1018 10 16 0.00 0.00
11:50 am 11:50 Cloudy 73 23 66 19 78 78 ENE 6 9 30.06 1018 10 16 0.00 0.00
12:50 pm 12:50 Cloudy 73 23 66 19 78 78 NE 3 6 30.05 1018 10 16 0.00 0.00
1:22 pm 13:22 Cloudy 75 24 66 19 74 74 N 5 7 30.04 1017 10 16 0.00 0.00
1:48 pm 13:48 Mostly Cloudy 77 25 66 19 69 69 N 9 15 30.02 1017 10 16 0.00 0.00
2:45 pm 14:45 Cloudy 79 26 66 19 65 65 N 6 9 29.99 1016 10 16 0.00 0.00
3:47 pm 15:47 Mostly Cloudy 81 27 66 19 62 62 NW 5 7 29.95 1014 10 16 0.00 0.00
4:50 pm 16:50 Mostly Cloudy 81 27 68 20 66 66 NE 8 13 29.93 1014 10 16 0.00 0.00
5:50 pm 17:50 Mostly Cloudy 81 27 68 20 66 66 NNE 7 11 29.93 1014 10 16 0.00 0.00
6:49 pm 18:49 Partly Cloudy 81 27 68 20 66 66 NE 6 9 29.93 1014 10 16 0.00 0.00
7:46 pm 19:46 Mostly Cloudy 79 26 68 20 70 70 ENE 7 11 29.93 1014 10 16 0.00 0.00
8:11 pm 20:11 Partly Cloudy with Thunderstorms 79 26 68 20 70 70 ENE 8 13 29.93 1014 10 16 0.00 0.00
8:48 pm 20:48 Mostly Cloudy with Thunderstorms 72 22 68 20 88 88 E 12 19 29.95 1014 10 16 0.00 0.00
9:55 pm 21:55 Cloudy 72 22 68 20 88 88 NE 5 7 29.96 1015 10 16 0.00 0.00
10:15 pm 22:15 Cloudy with Light Rain 72 22.2 69 20.3 89 89 NNE 3 6 29.96 1015 10 16 0.00 0.00
10:35 pm 22:35 Mostly Cloudy 72 22.4 69 20.5 89 89 NE 6 9 29.95 1014 10 16 0.00 0.00
10:55 pm 22:55 Partly Cloudy 72 22.3 69 20.6 90 90 NE 9 15 29.94 1014 10 16 0.00 0.00
11:15 pm 23:15 Mostly Cloudy 72 22.3 69 20.8 91 91 NE 8 13 29.93 1014 10 16 0.00 0.00
11:35 pm 23:35 Partly Cloudy 72 22.3 70 21 92 92 E 6 9 29.93 1014 10 16 0.00 0.00
11:55 pm 23:55 Clear 72 22.3 70 21 92 92 E 3 6 29.93 1014 10 16 0.00 0.00

Powered by AerisWeather